Year,Month,Day,Hour,Minute,Value (Times are PST for temperature in C)
2014,07,10,00,00,14.10
2014,07,10,00,01,14.10
2014,07,10,00,02,14.20
2014,07,10,00,03,14.20
2014,07,10,00,04,14.20
2014,07,10,00,05,14.20
2014,07,10,00,06,14.20
2014,07,10,00,07,14.10
2014,07,10,00,08,14.10
2014,07,10,00,09,14.00
2014,07,10,00,10,14.00
2014,07,10,00,11,13.90
2014,07,10,00,12,13.90
2014,07,10,00,13,13.80
2014,07,10,00,14,13.80
2014,07,10,00,15,13.80
2014,07,10,00,16,13.70
2014,07,10,00,17,13.70
2014,07,10,00,18,13.70
2014,07,10,00,19,13.60
2014,07,10,00,20,13.60
2014,07,10,00,21,13.50
2014,07,10,00,22,13.40
2014,07,10,00,23,13.40
2014,07,10,00,24,13.30
2014,07,10,00,25,13.30
2014,07,10,00,26,13.30
2014,07,10,00,27,13.30
2014,07,10,00,28,13.20
2014,07,10,00,29,13.20
2014,07,10,00,30,13.20
2014,07,10,00,31,13.20
2014,07,10,00,32,13.20
2014,07,10,00,33,13.20
2014,07,10,00,34,13.20
2014,07,10,00,35,13.20
2014,07,10,00,36,13.20
2014,07,10,00,37,13.20
2014,07,10,00,38,13.20
2014,07,10,00,39,13.20
2014,07,10,00,40,13.20
2014,07,10,00,41,13.20
2014,07,10,00,42,13.20
2014,07,10,00,43,13.20
2014,07,10,00,44,13.20
2014,07,10,00,45,13.20
2014,07,10,00,46,13.20
2014,07,10,00,47,13.20
2014,07,10,00,48,13.30
2014,07,10,00,49,13.40
2014,07,10,00,50,13.40
2014,07,10,00,51,13.40
2014,07,10,00,52,13.40
2014,07,10,00,53,13.30
2014,07,10,00,54,13.30
2014,07,10,00,55,13.30
2014,07,10,00,56,13.30
2014,07,10,00,57,13.20
2014,07,10,00,58,13.20
2014,07,10,00,59,13.20
2014,07,10,01,00,13.10
2014,07,10,01,01,13.00
2014,07,10,01,02,13.00
2014,07,10,01,03,12.90
2014,07,10,01,04,12.90
2014,07,10,01,05,12.80
2014,07,10,01,06,12.80
2014,07,10,01,07,12.80
2014,07,10,01,08,12.80
2014,07,10,01,09,12.70
2014,07,10,01,10,12.70
2014,07,10,01,11,12.70
2014,07,10,01,12,12.70
2014,07,10,01,13,12.70
2014,07,10,01,14,12.70
2014,07,10,01,15,12.60
2014,07,10,01,16,12.60
2014,07,10,01,17,12.60
2014,07,10,01,18,12.60
2014,07,10,01,19,12.60
2014,07,10,01,20,12.60
2014,07,10,01,21,12.60
2014,07,10,01,22,12.60
2014,07,10,01,23,12.60
2014,07,10,01,24,12.60
2014,07,10,01,25,12.60
2014,07,10,01,26,12.60
2014,07,10,01,27,12.60
2014,07,10,01,28,12.60
2014,07,10,01,29,12.60
2014,07,10,01,30,12.60
2014,07,10,01,31,12.60
2014,07,10,01,32,12.60
2014,07,10,01,33,12.50
2014,07,10,01,34,12.50
2014,07,10,01,35,12.50
2014,07,10,01,36,12.50
2014,07,10,01,37,12.40
2014,07,10,01,38,12.40
2014,07,10,01,39,12.40
2014,07,10,01,40,12.40
2014,07,10,01,41,12.30
2014,07,10,01,42,12.30
2014,07,10,01,43,12.30
2014,07,10,01,44,12.30
2014,07,10,01,45,12.30
2014,07,10,01,46,12.20
2014,07,10,01,47,12.20
2014,07,10,01,48,12.20
2014,07,10,01,49,12.20
2014,07,10,01,50,12.20
2014,07,10,01,51,12.20
2014,07,10,01,52,12.20
2014,07,10,01,53,12.20
2014,07,10,01,54,12.20
2014,07,10,01,55,12.20
2014,07,10,01,56,12.20
2014,07,10,01,57,12.20
2014,07,10,01,58,12.20
2014,07,10,01,59,12.20
2014,07,10,02,00,12.20
2014,07,10,02,01,12.20
2014,07,10,02,02,12.10
2014,07,10,02,03,12.10
2014,07,10,02,04,12.10
2014,07,10,02,05,12.10
2014,07,10,02,06,12.10
2014,07,10,02,07,12.00
2014,07,10,02,08,12.00
2014,07,10,02,09,12.00
2014,07,10,02,10,11.90
2014,07,10,02,11,11.90
2014,07,10,02,12,11.90
2014,07,10,02,13,11.90
2014,07,10,02,14,11.90
2014,07,10,02,15,11.90
2014,07,10,02,16,11.90
2014,07,10,02,17,11.90
2014,07,10,02,18,11.80
2014,07,10,02,19,11.80
2014,07,10,02,20,11.80
2014,07,10,02,21,11.80
2014,07,10,02,22,11.80
2014,07,10,02,23,11.80
2014,07,10,02,24,11.80
2014,07,10,02,25,11.80
2014,07,10,02,26,11.80
2014,07,10,02,27,11.70
2014,07,10,02,28,11.70
2014,07,10,02,29,11.80
2014,07,10,02,30,11.80
2014,07,10,02,31,11.80
2014,07,10,02,32,11.80
2014,07,10,02,33,11.80
2014,07,10,02,34,11.80
2014,07,10,02,35,11.80
2014,07,10,02,36,11.80
2014,07,10,02,37,11.80
2014,07,10,02,38,11.80
2014,07,10,02,39,11.80
2014,07,10,02,40,11.80
2014,07,10,02,41,11.80
2014,07,10,02,42,11.80
2014,07,10,02,43,11.80
2014,07,10,02,44,11.80
2014,07,10,02,45,11.80
2014,07,10,02,46,11.70
2014,07,10,02,47,11.70
2014,07,10,02,48,11.80
2014,07,10,02,49,11.80
2014,07,10,02,50,11.80
2014,07,10,02,51,11.80
2014,07,10,02,52,11.80
2014,07,10,02,53,11.80
2014,07,10,02,54,11.90
2014,07,10,02,55,11.90
2014,07,10,02,56,11.90
2014,07,10,02,57,11.90
2014,07,10,02,58,12.00
2014,07,10,02,59,12.00
2014,07,10,03,00,12.00
2014,07,10,03,01,12.00
2014,07,10,03,02,12.00
2014,07,10,03,03,12.00
2014,07,10,03,04,12.00
2014,07,10,03,05,12.00
2014,07,10,03,06,12.00
2014,07,10,03,07,11.90
2014,07,10,03,08,11.90
2014,07,10,03,09,11.80
2014,07,10,03,10,11.80
2014,07,10,03,11,11.80
2014,07,10,03,12,11.70
2014,07,10,03,13,11.70
2014,07,10,03,14,11.70
2014,07,10,03,15,11.60
2014,07,10,03,16,11.60
2014,07,10,03,17,11.60
2014,07,10,03,18,11.50
2014,07,10,03,19,11.50
2014,07,10,03,20,11.50
2014,07,10,03,21,11.40
2014,07,10,03,22,11.40
2014,07,10,03,23,11.40
2014,07,10,03,24,11.30
2014,07,10,03,25,11.30
2014,07,10,03,26,11.30
2014,07,10,03,27,11.30
2014,07,10,03,28,11.30
2014,07,10,03,29,11.30
2014,07,10,03,30,11.30
2014,07,10,03,31,11.30
2014,07,10,03,32,11.30
2014,07,10,03,33,11.30
2014,07,10,03,34,11.30
2014,07,10,03,35,11.30
2014,07,10,03,36,11.30
2014,07,10,03,37,11.30
2014,07,10,03,38,11.30
2014,07,10,03,39,11.20
2014,07,10,03,40,11.20
2014,07,10,03,41,11.20
2014,07,10,03,42,11.20
2014,07,10,03,43,11.20
2014,07,10,03,44,11.20
2014,07,10,03,45,11.20
2014,07,10,03,46,11.20
2014,07,10,03,47,11.20
2014,07,10,03,48,11.20
2014,07,10,03,49,11.20
2014,07,10,03,50,11.20
2014,07,10,03,51,11.20
2014,07,10,03,52,11.20
2014,07,10,03,53,11.20
2014,07,10,03,54,11.20
2014,07,10,03,55,11.20
2014,07,10,03,56,11.20
2014,07,10,03,57,11.20
2014,07,10,03,58,11.20
2014,07,10,03,59,11.20
2014,07,10,04,00,11.20
2014,07,10,04,01,11.20
2014,07,10,04,02,11.20
2014,07,10,04,03,11.20
2014,07,10,04,04,11.20
2014,07,10,04,05,11.20
2014,07,10,04,06,11.20
2014,07,10,04,07,11.20
2014,07,10,04,08,11.20
2014,07,10,04,09,11.20
2014,07,10,04,10,11.20
2014,07,10,04,11,11.10
2014,07,10,04,12,11.10
2014,07,10,04,13,11.10
2014,07,10,04,14,11.10
2014,07,10,04,15,11.10
2014,07,10,04,16,11.00
2014,07,10,04,17,11.00
2014,07,10,04,18,11.00
2014,07,10,04,19,10.90
2014,07,10,04,20,10.90
2014,07,10,04,21,10.90
2014,07,10,04,22,10.90
2014,07,10,04,23,10.80
2014,07,10,04,24,10.80
2014,07,10,04,25,10.80
2014,07,10,04,26,10.80
2014,07,10,04,27,10.80
2014,07,10,04,28,10.80
2014,07,10,04,29,10.80
2014,07,10,04,30,10.80
2014,07,10,04,31,10.80
2014,07,10,04,32,10.80
2014,07,10,04,33,10.80
2014,07,10,04,34,10.80
2014,07,10,04,35,10.80
2014,07,10,04,36,10.80
2014,07,10,04,37,10.80
2014,07,10,04,38,10.80
2014,07,10,04,39,10.80
2014,07,10,04,40,10.70
2014,07,10,04,41,10.70
2014,07,10,04,42,10.70
2014,07,10,04,43,10.70
2014,07,10,04,44,10.70
2014,07,10,04,45,10.70
2014,07,10,04,46,10.70
2014,07,10,04,47,10.60
2014,07,10,04,48,10.60
2014,07,10,04,49,10.60
2014,07,10,04,50,10.60
2014,07,10,04,51,10.50
2014,07,10,04,52,10.50
2014,07,10,04,53,10.50
2014,07,10,04,54,10.40
2014,07,10,04,55,10.40
2014,07,10,04,56,10.40
2014,07,10,04,57,10.40
2014,07,10,04,58,10.40
2014,07,10,04,59,10.40
2014,07,10,05,00,10.40
2014,07,10,05,01,10.40
2014,07,10,05,02,10.40
2014,07,10,05,03,10.40
2014,07,10,05,04,10.40
2014,07,10,05,05,10.40
2014,07,10,05,06,10.40
2014,07,10,05,07,10.40
2014,07,10,05,08,10.40
2014,07,10,05,09,10.40
2014,07,10,05,10,10.40
2014,07,10,05,11,10.40
2014,07,10,05,12,10.40
2014,07,10,05,13,10.40
2014,07,10,05,14,10.40
2014,07,10,05,15,10.40
2014,07,10,05,16,10.40
2014,07,10,05,17,10.40
2014,07,10,05,18,10.40
2014,07,10,05,19,10.40
2014,07,10,05,20,10.40
2014,07,10,05,21,10.40
2014,07,10,05,22,10.40
2014,07,10,05,23,10.40
2014,07,10,05,24,10.40
2014,07,10,05,25,10.40
2014,07,10,05,26,10.40
2014,07,10,05,27,10.40
2014,07,10,05,28,10.40
2014,07,10,05,29,10.40
2014,07,10,05,30,10.40
2014,07,10,05,31,10.30
2014,07,10,05,32,10.30
2014,07,10,05,33,10.30
2014,07,10,05,34,10.30
2014,07,10,05,35,10.40
2014,07,10,05,36,10.40
2014,07,10,05,37,10.40
2014,07,10,05,38,10.40
2014,07,10,05,39,10.50
2014,07,10,05,40,10.50
2014,07,10,05,41,10.50
2014,07,10,05,42,10.50
2014,07,10,05,43,10.50
2014,07,10,05,44,10.50
2014,07,10,05,45,10.40
2014,07,10,05,46,10.40
2014,07,10,05,47,10.30
2014,07,10,05,48,10.30
2014,07,10,05,49,10.30
2014,07,10,05,50,10.20
2014,07,10,05,51,10.20
2014,07,10,05,52,10.20
2014,07,10,05,53,10.30
2014,07,10,05,54,10.30
2014,07,10,05,55,10.30
2014,07,10,05,56,10.30
2014,07,10,05,57,10.30
2014,07,10,05,58,10.30
2014,07,10,05,59,10.40
2014,07,10,06,00,10.40
2014,07,10,06,01,10.40
2014,07,10,06,02,10.40
2014,07,10,06,03,10.40
2014,07,10,06,04,10.40
2014,07,10,06,05,10.40
2014,07,10,06,06,10.40
2014,07,10,06,07,10.40
2014,07,10,06,08,10.50
2014,07,10,06,09,10.50
2014,07,10,06,10,10.50
2014,07,10,06,11,10.50
2014,07,10,06,12,10.60
2014,07,10,06,13,10.60
2014,07,10,06,14,10.60
2014,07,10,06,15,10.70
2014,07,10,06,16,10.70
2014,07,10,06,17,10.80
2014,07,10,06,18,10.80
2014,07,10,06,19,10.80
2014,07,10,06,20,10.80
2014,07,10,06,21,10.90
2014,07,10,06,22,10.90
2014,07,10,06,23,10.90
2014,07,10,06,24,10.90
2014,07,10,06,25,11.00
2014,07,10,06,26,11.00
2014,07,10,06,27,11.10
2014,07,10,06,28,11.10
2014,07,10,06,29,11.10
2014,07,10,06,30,11.20
2014,07,10,06,31,11.20
2014,07,10,06,32,11.20
2014,07,10,06,33,11.20
2014,07,10,06,34,11.30
2014,07,10,06,35,11.30
2014,07,10,06,36,11.30
2014,07,10,06,37,11.40
2014,07,10,06,38,11.40
2014,07,10,06,39,11.50
2014,07,10,06,40,11.60
2014,07,10,06,41,11.60
2014,07,10,06,42,11.70
2014,07,10,06,43,11.80
2014,07,10,06,44,11.90
2014,07,10,06,45,12.10
2014,07,10,06,46,12.20
2014,07,10,06,47,12.30
2014,07,10,06,48,12.50
2014,07,10,06,49,12.60
2014,07,10,06,50,12.70
2014,07,10,06,51,12.80
2014,07,10,06,52,12.90
2014,07,10,06,53,13.00
2014,07,10,06,54,13.10
2014,07,10,06,55,13.20
2014,07,10,06,56,13.20
2014,07,10,06,57,13.30
2014,07,10,06,58,13.40
2014,07,10,06,59,13.50
2014,07,10,07,00,13.60
2014,07,10,07,01,13.70
2014,07,10,07,02,13.70
2014,07,10,07,03,13.80
2014,07,10,07,04,13.90
2014,07,10,07,05,13.90
2014,07,10,07,06,14.00
2014,07,10,07,07,14.00
2014,07,10,07,08,14.10
2014,07,10,07,09,14.10
2014,07,10,07,10,14.20
2014,07,10,07,11,14.20
2014,07,10,07,12,14.30
2014,07,10,07,13,14.30
2014,07,10,07,14,14.30
2014,07,10,07,15,14.30
2014,07,10,07,16,14.30
2014,07,10,07,17,14.30
2014,07,10,07,18,14.30
2014,07,10,07,19,14.30
2014,07,10,07,20,14.30
2014,07,10,07,21,14.30
2014,07,10,07,22,14.30
2014,07,10,07,23,14.20
2014,07,10,07,24,14.20
2014,07,10,07,25,14.20
2014,07,10,07,26,14.20
2014,07,10,07,27,14.20
2014,07,10,07,28,14.30
2014,07,10,07,29,14.30
2014,07,10,07,30,14.30
2014,07,10,07,31,14.40
2014,07,10,07,32,14.40
2014,07,10,07,33,14.50
2014,07,10,07,34,14.50
2014,07,10,07,35,14.60
2014,07,10,07,36,14.60
2014,07,10,07,37,14.70
2014,07,10,07,38,14.70
2014,07,10,07,39,14.70
2014,07,10,07,40,14.70
2014,07,10,07,41,14.70
2014,07,10,07,42,14.80
2014,07,10,07,43,14.80
2014,07,10,07,44,14.80
2014,07,10,07,45,14.90
2014,07,10,07,46,14.90
2014,07,10,07,47,14.90
2014,07,10,07,48,14.90
2014,07,10,07,49,15.00
2014,07,10,07,50,15.00
2014,07,10,07,51,15.10
2014,07,10,07,52,15.20
2014,07,10,07,53,15.20
2014,07,10,07,54,15.30
2014,07,10,07,55,15.30
2014,07,10,07,56,15.30
2014,07,10,07,57,15.30
2014,07,10,07,58,15.40
2014,07,10,07,59,15.40
2014,07,10,08,00,15.40
2014,07,10,08,01,15.40
2014,07,10,08,02,15.40
2014,07,10,08,03,15.40
2014,07,10,08,04,15.40
2014,07,10,08,05,15.40
2014,07,10,08,06,15.30
2014,07,10,08,07,15.30
2014,07,10,08,08,15.30
2014,07,10,08,09,15.30
2014,07,10,08,10,15.30
2014,07,10,08,11,15.40
2014,07,10,08,12,15.40
2014,07,10,08,13,15.50
2014,07,10,08,14,15.50
2014,07,10,08,15,15.60
2014,07,10,08,16,15.60
2014,07,10,08,17,15.60
2014,07,10,08,18,15.70
2014,07,10,08,19,15.70
2014,07,10,08,20,15.70
2014,07,10,08,21,15.70
2014,07,10,08,22,15.80
2014,07,10,08,23,15.80
2014,07,10,08,24,15.90
2014,07,10,08,25,15.90
2014,07,10,08,26,16.00
2014,07,10,08,27,16.10
2014,07,10,08,28,16.20
2014,07,10,08,29,16.20
2014,07,10,08,30,16.20
2014,07,10,08,31,16.20
2014,07,10,08,32,16.20
2014,07,10,08,33,16.20
2014,07,10,08,34,16.20
2014,07,10,08,35,16.20
2014,07,10,08,36,16.10
2014,07,10,08,37,16.10
2014,07,10,08,38,16.10
2014,07,10,08,39,16.10
2014,07,10,08,40,16.10
2014,07,10,08,41,16.10
2014,07,10,08,42,16.10
2014,07,10,08,43,16.20
2014,07,10,08,44,16.20
2014,07,10,08,45,16.30
2014,07,10,08,46,16.30
2014,07,10,08,47,16.30
2014,07,10,08,48,16.30
2014,07,10,08,49,16.40
2014,07,10,08,50,16.40
2014,07,10,08,51,16.50
2014,07,10,08,52,16.50
2014,07,10,08,53,16.60
2014,07,10,08,54,16.70
2014,07,10,08,55,16.70
2014,07,10,08,56,16.80
2014,07,10,08,57,16.80
2014,07,10,08,58,16.90
2014,07,10,08,59,17.00
2014,07,10,09,00,17.10
2014,07,10,09,01,17.10
2014,07,10,09,02,17.20
2014,07,10,09,03,17.20
2014,07,10,09,04,17.30
2014,07,10,09,05,17.30
2014,07,10,09,06,17.30
2014,07,10,09,07,17.30
2014,07,10,09,08,17.40
2014,07,10,09,09,17.40
2014,07,10,09,10,17.40
2014,07,10,09,11,17.40
2014,07,10,09,12,17.40
2014,07,10,09,13,17.30
2014,07,10,09,14,17.40
2014,07,10,09,15,17.30
2014,07,10,09,16,17.30
2014,07,10,09,17,17.30
2014,07,10,09,18,17.30
2014,07,10,09,19,17.30
2014,07,10,09,20,17.30
2014,07,10,09,21,17.30
2014,07,10,09,22,17.30
2014,07,10,09,23,17.30
2014,07,10,09,24,17.30
2014,07,10,09,25,17.30
2014,07,10,09,26,17.30
2014,07,10,09,27,17.40
2014,07,10,09,28,17.40
2014,07,10,09,29,17.40
2014,07,10,09,30,17.50
2014,07,10,09,31,17.60
2014,07,10,09,32,17.70
2014,07,10,09,33,17.80
2014,07,10,09,34,17.80
2014,07,10,09,35,17.90
2014,07,10,09,36,17.90
2014,07,10,09,37,17.90
2014,07,10,09,38,17.90
2014,07,10,09,39,17.90
2014,07,10,09,40,17.80
2014,07,10,09,41,17.70
2014,07,10,09,42,17.70
2014,07,10,09,43,17.70
2014,07,10,09,44,17.80
2014,07,10,09,45,17.80
2014,07,10,09,46,17.90
2014,07,10,09,47,18.10
2014,07,10,09,48,18.20
2014,07,10,09,49,18.20
2014,07,10,09,50,18.30
2014,07,10,09,51,18.30
2014,07,10,09,52,18.30
2014,07,10,09,53,18.40
2014,07,10,09,54,18.40
2014,07,10,09,55,18.40
2014,07,10,09,56,18.40
2014,07,10,09,57,18.40
2014,07,10,09,58,18.50
2014,07,10,09,59,18.50
2014,07,10,10,00,18.60
2014,07,10,10,01,18.70
2014,07,10,10,02,18.80
2014,07,10,10,03,18.80
2014,07,10,10,04,18.90
2014,07,10,10,05,18.90
2014,07,10,10,06,18.90
2014,07,10,10,07,18.90
2014,07,10,10,08,18.90
2014,07,10,10,09,18.90
2014,07,10,10,10,18.80
2014,07,10,10,11,18.80
2014,07,10,10,12,18.80
2014,07,10,10,13,18.80
2014,07,10,10,14,18.80
2014,07,10,10,15,18.80
2014,07,10,10,16,18.90
2014,07,10,10,17,18.90
2014,07,10,10,18,19.00
2014,07,10,10,19,19.10
2014,07,10,10,20,19.10
2014,07,10,10,21,19.10
2014,07,10,10,22,19.20
2014,07,10,10,23,19.20
2014,07,10,10,24,19.20
2014,07,10,10,25,19.20
2014,07,10,10,26,19.20
2014,07,10,10,27,19.30
2014,07,10,10,28,19.40
2014,07,10,10,29,19.40
2014,07,10,10,30,19.40
2014,07,10,10,31,19.50
2014,07,10,10,32,19.50
2014,07,10,10,33,19.50
2014,07,10,10,34,19.60
2014,07,10,10,35,19.60
2014,07,10,10,36,19.50
2014,07,10,10,37,19.50
2014,07,10,10,38,19.40
2014,07,10,10,39,19.40
2014,07,10,10,40,19.40
2014,07,10,10,41,19.40
2014,07,10,10,42,19.40
2014,07,10,10,43,19.50
2014,07,10,10,44,19.60
2014,07,10,10,45,19.70
2014,07,10,10,46,19.80
2014,07,10,10,47,19.80
2014,07,10,10,48,19.90
2014,07,10,10,49,20.00
2014,07,10,10,50,20.00
2014,07,10,10,51,20.00
2014,07,10,10,52,20.10
2014,07,10,10,53,20.10
2014,07,10,10,54,20.20
2014,07,10,10,55,20.20
2014,07,10,10,56,20.10
2014,07,10,10,57,20.00
2014,07,10,10,58,20.00
2014,07,10,10,59,19.90
2014,07,10,11,00,19.80
2014,07,10,11,01,19.80
2014,07,10,11,02,19.80
2014,07,10,11,03,19.90
2014,07,10,11,04,19.90
2014,07,10,11,05,20.00
2014,07,10,11,06,20.10
2014,07,10,11,07,20.10
2014,07,10,11,08,20.20
2014,07,10,11,09,20.30
2014,07,10,11,10,20.40
2014,07,10,11,11,20.50
2014,07,10,11,12,20.60
2014,07,10,11,13,20.70
2014,07,10,11,14,20.80
2014,07,10,11,15,20.80
2014,07,10,11,16,20.80
2014,07,10,11,17,20.80
2014,07,10,11,18,20.90
2014,07,10,11,19,20.90
2014,07,10,11,20,20.90
2014,07,10,11,21,20.90
2014,07,10,11,22,20.90
2014,07,10,11,23,21.00
2014,07,10,11,24,21.00
2014,07,10,11,25,21.10
2014,07,10,11,26,21.10
2014,07,10,11,27,21.20
2014,07,10,11,28,21.20
2014,07,10,11,29,21.20
2014,07,10,11,30,21.10
2014,07,10,11,31,21.00
2014,07,10,11,32,21.00
2014,07,10,11,33,21.00
2014,07,10,11,34,21.10
2014,07,10,11,35,21.10
2014,07,10,11,36,21.10
2014,07,10,11,37,21.00
2014,07,10,11,38,20.90
2014,07,10,11,39,20.80
2014,07,10,11,40,20.70
2014,07,10,11,41,20.60
2014,07,10,11,42,20.50
2014,07,10,11,43,20.50
2014,07,10,11,44,20.50
2014,07,10,11,45,20.60
2014,07,10,11,46,20.70
2014,07,10,11,47,20.80
2014,07,10,11,48,20.80
2014,07,10,11,49,20.80
2014,07,10,11,50,20.80
2014,07,10,11,51,20.90
2014,07,10,11,52,21.00
2014,07,10,11,53,21.10
2014,07,10,11,54,21.20
2014,07,10,11,55,21.30
2014,07,10,11,56,21.30
2014,07,10,11,57,21.30
2014,07,10,11,58,21.30
2014,07,10,11,59,21.30
2014,07,10,12,00,21.20
2014,07,10,12,01,21.20
2014,07,10,12,02,21.20
2014,07,10,12,03,21.30
2014,07,10,12,04,21.40
2014,07,10,12,05,21.50
2014,07,10,12,06,21.50
2014,07,10,12,07,21.50
2014,07,10,12,08,21.40
2014,07,10,12,09,21.50
2014,07,10,12,10,21.50
2014,07,10,12,11,21.60
2014,07,10,12,12,21.60
2014,07,10,12,13,21.60
2014,07,10,12,14,21.60
2014,07,10,12,15,21.60
2014,07,10,12,16,21.60
2014,07,10,12,17,21.70
2014,07,10,12,18,21.70
2014,07,10,12,19,21.80
2014,07,10,12,20,21.80
2014,07,10,12,21,21.90
2014,07,10,12,22,22.00
2014,07,10,12,23,22.10
2014,07,10,12,24,22.20
2014,07,10,12,25,22.30
2014,07,10,12,26,22.30
2014,07,10,12,27,22.20
2014,07,10,12,28,22.10
2014,07,10,12,29,22.10
2014,07,10,12,30,22.00
2014,07,10,12,31,21.90
2014,07,10,12,32,21.90
2014,07,10,12,33,21.90
2014,07,10,12,34,21.80
2014,07,10,12,35,21.80
2014,07,10,12,36,21.80
2014,07,10,12,37,21.80
2014,07,10,12,38,21.70
2014,07,10,12,39,21.70
2014,07,10,12,40,21.70
2014,07,10,12,41,21.80
2014,07,10,12,42,21.80
2014,07,10,12,43,21.90
2014,07,10,12,44,21.90
2014,07,10,12,45,21.90
2014,07,10,12,46,22.00
2014,07,10,12,47,22.00
2014,07,10,12,48,22.00
2014,07,10,12,49,22.10
2014,07,10,12,50,22.10
2014,07,10,12,51,22.10
2014,07,10,12,52,22.20
2014,07,10,12,53,22.30
2014,07,10,12,54,22.40
2014,07,10,12,55,22.40
2014,07,10,12,56,22.50
2014,07,10,12,57,22.60
2014,07,10,12,58,22.70
2014,07,10,12,59,22.70
2014,07,10,13,00,22.70
2014,07,10,13,01,22.70
2014,07,10,13,02,22.70
2014,07,10,13,03,22.60
2014,07,10,13,04,22.60
2014,07,10,13,05,22.60
2014,07,10,13,06,22.70
2014,07,10,13,07,22.80
2014,07,10,13,08,22.90
2014,07,10,13,09,23.00
2014,07,10,13,10,23.00
2014,07,10,13,11,23.00
2014,07,10,13,12,23.10
2014,07,10,13,13,23.20
2014,07,10,13,14,23.30
2014,07,10,13,15,23.20
2014,07,10,13,16,23.20
2014,07,10,13,17,23.10
2014,07,10,13,18,23.10
2014,07,10,13,19,23.10
2014,07,10,13,20,23.10
2014,07,10,13,21,23.10
2014,07,10,13,22,23.00
2014,07,10,13,23,23.00
2014,07,10,13,24,23.00
2014,07,10,13,25,23.10
2014,07,10,13,26,23.10
2014,07,10,13,27,23.10
2014,07,10,13,28,23.20
2014,07,10,13,29,23.20
2014,07,10,13,30,23.20
2014,07,10,13,31,23.20
2014,07,10,13,32,23.20
2014,07,10,13,33,23.20
2014,07,10,13,34,23.20
2014,07,10,13,35,23.20
2014,07,10,13,36,23.20
2014,07,10,13,37,23.30
2014,07,10,13,38,23.40
2014,07,10,13,39,23.50
2014,07,10,13,40,23.60
2014,07,10,13,41,23.60
2014,07,10,13,42,23.60
2014,07,10,13,43,23.60
2014,07,10,13,44,23.60
2014,07,10,13,45,23.60
2014,07,10,13,46,23.60
2014,07,10,13,47,23.70
2014,07,10,13,48,23.70
2014,07,10,13,49,23.60
2014,07,10,13,50,23.60
2014,07,10,13,51,23.60
2014,07,10,13,52,23.60
2014,07,10,13,53,23.60
2014,07,10,13,54,23.60
2014,07,10,13,55,23.70
2014,07,10,13,56,23.80
2014,07,10,13,57,23.80
2014,07,10,13,58,23.70
2014,07,10,13,59,23.70
2014,07,10,14,00,23.70
2014,07,10,14,01,23.80
2014,07,10,14,02,23.90
2014,07,10,14,03,23.90
2014,07,10,14,04,23.90
2014,07,10,14,05,23.90
2014,07,10,14,06,24.00
2014,07,10,14,07,24.00
2014,07,10,14,08,24.00
2014,07,10,14,09,24.10
2014,07,10,14,10,24.00
2014,07,10,14,11,23.90
2014,07,10,14,12,23.90
2014,07,10,14,13,23.90
2014,07,10,14,14,23.90
2014,07,10,14,15,23.90
2014,07,10,14,16,23.80
2014,07,10,14,17,23.80
2014,07,10,14,18,23.90
2014,07,10,14,19,23.90
2014,07,10,14,20,23.90
2014,07,10,14,21,23.80
2014,07,10,14,22,23.80
2014,07,10,14,23,23.80
2014,07,10,14,24,23.80
2014,07,10,14,25,23.80
2014,07,10,14,26,23.80
2014,07,10,14,27,23.70
2014,07,10,14,28,23.90
2014,07,10,14,29,24.00
2014,07,10,14,30,24.20
2014,07,10,14,31,24.20
2014,07,10,14,32,24.30
2014,07,10,14,33,24.30
2014,07,10,14,34,24.30
2014,07,10,14,35,24.20
2014,07,10,14,36,24.20
2014,07,10,14,37,24.20
2014,07,10,14,38,24.20
2014,07,10,14,39,24.30
2014,07,10,14,40,24.30
2014,07,10,14,41,24.20
2014,07,10,14,42,24.20
2014,07,10,14,43,24.10
2014,07,10,14,44,24.10
2014,07,10,14,45,24.10
2014,07,10,14,46,24.10
2014,07,10,14,47,24.20
2014,07,10,14,48,24.20
2014,07,10,14,49,24.20
2014,07,10,14,50,24.20
2014,07,10,14,51,24.20
2014,07,10,14,52,24.20
2014,07,10,14,53,24.20
2014,07,10,14,54,24.30
2014,07,10,14,55,24.30
2014,07,10,14,56,24.40
2014,07,10,14,57,24.50
2014,07,10,14,58,24.50
2014,07,10,14,59,24.70
2014,07,10,15,00,24.80
2014,07,10,15,01,24.80
2014,07,10,15,02,24.90
2014,07,10,15,03,24.90
2014,07,10,15,04,25.00
2014,07,10,15,05,25.00
2014,07,10,15,06,25.10
2014,07,10,15,07,25.10
2014,07,10,15,08,25.20
2014,07,10,15,09,25.30
2014,07,10,15,10,25.30
2014,07,10,15,11,25.30
2014,07,10,15,12,25.30
2014,07,10,15,13,25.40
2014,07,10,15,14,25.40
2014,07,10,15,15,25.30
2014,07,10,15,16,25.30
2014,07,10,15,17,25.10
2014,07,10,15,18,24.90
2014,07,10,15,19,24.80
2014,07,10,15,20,24.70
2014,07,10,15,21,24.60
2014,07,10,15,22,24.60
2014,07,10,15,23,24.60
2014,07,10,15,24,24.70
2014,07,10,15,25,24.70
2014,07,10,15,26,24.70
2014,07,10,15,27,24.70
2014,07,10,15,28,24.80
2014,07,10,15,29,24.90
2014,07,10,15,30,24.90
2014,07,10,15,31,25.00
2014,07,10,15,32,25.00
2014,07,10,15,33,25.10
2014,07,10,15,34,25.10
2014,07,10,15,35,25.20
2014,07,10,15,36,25.30
2014,07,10,15,37,25.30
2014,07,10,15,38,25.40
2014,07,10,15,39,25.40
2014,07,10,15,40,25.30
2014,07,10,15,41,25.20
2014,07,10,15,42,25.10
2014,07,10,15,43,25.10
2014,07,10,15,44,25.10
2014,07,10,15,45,25.10
2014,07,10,15,46,25.10
2014,07,10,15,47,25.00
2014,07,10,15,48,25.00
2014,07,10,15,49,24.90
2014,07,10,15,50,24.80
2014,07,10,15,51,24.90
2014,07,10,15,52,25.00
2014,07,10,15,53,25.10
2014,07,10,15,54,25.20
2014,07,10,15,55,25.40
2014,07,10,15,56,25.50
2014,07,10,15,57,25.50
2014,07,10,15,58,25.60
2014,07,10,15,59,25.70
2014,07,10,16,00,25.80
2014,07,10,16,01,25.80
2014,07,10,16,02,25.70
2014,07,10,16,03,25.60
2014,07,10,16,04,25.50
2014,07,10,16,05,25.40
2014,07,10,16,06,25.40
2014,07,10,16,07,25.40
2014,07,10,16,08,25.40
2014,07,10,16,09,25.40
2014,07,10,16,10,25.40
2014,07,10,16,11,25.40
2014,07,10,16,12,25.30
2014,07,10,16,13,25.40
2014,07,10,16,14,25.40
2014,07,10,16,15,25.40
2014,07,10,16,16,25.50
2014,07,10,16,17,25.50
2014,07,10,16,18,25.60
2014,07,10,16,19,25.60
2014,07,10,16,20,25.60
2014,07,10,16,21,25.70
2014,07,10,16,22,25.70
2014,07,10,16,23,25.70
2014,07,10,16,24,25.80
2014,07,10,16,25,25.90
2014,07,10,16,26,25.90
2014,07,10,16,27,26.00
2014,07,10,16,28,26.00
2014,07,10,16,29,26.00
2014,07,10,16,30,26.10
2014,07,10,16,31,26.10
2014,07,10,16,32,26.00
2014,07,10,16,33,26.10
2014,07,10,16,34,26.10
2014,07,10,16,35,26.20
2014,07,10,16,36,26.30
2014,07,10,16,37,26.30
2014,07,10,16,38,26.30
2014,07,10,16,39,26.20
2014,07,10,16,40,26.10
2014,07,10,16,41,26.10
2014,07,10,16,42,26.10
2014,07,10,16,43,26.10
2014,07,10,16,44,26.10
2014,07,10,16,45,26.10
2014,07,10,16,46,26.10
2014,07,10,16,47,26.00
2014,07,10,16,48,26.00
2014,07,10,16,49,25.90
2014,07,10,16,50,25.90
2014,07,10,16,51,26.00
2014,07,10,16,52,26.00
2014,07,10,16,53,26.00
2014,07,10,16,54,26.00
2014,07,10,16,55,26.00
2014,07,10,16,56,25.90
2014,07,10,16,57,25.90
2014,07,10,16,58,25.90
2014,07,10,16,59,25.90
2014,07,10,17,00,26.00
2014,07,10,17,01,26.00
2014,07,10,17,02,26.00
2014,07,10,17,03,26.10
2014,07,10,17,04,26.10
2014,07,10,17,05,26.10
2014,07,10,17,06,26.10
2014,07,10,17,07,26.10
2014,07,10,17,08,26.10
2014,07,10,17,09,26.20
2014,07,10,17,10,26.20
2014,07,10,17,11,26.30
2014,07,10,17,12,26.30
2014,07,10,17,13,26.30
2014,07,10,17,14,26.40
2014,07,10,17,15,26.50
2014,07,10,17,16,26.60
2014,07,10,17,17,26.60
2014,07,10,17,18,26.70
2014,07,10,17,19,26.70